Location: Bloomington Cemetery
(39.4675°N, 98.8121°W)
Time: 18:22:03
(UTC+00:00)

Daily predictions for brighter satellites

Satellite Brightness Start Highest point End
(mag) Time Altitude Azimuth Time Altitude Azimuth Time Altitude Azimuth
Cosmos 371 Rocket 3.1 12:02:51 10° SSW 12:07:40 74° WNW 12:12:33 10° NNE
Cosmos 2221 Rocket 3.4 12:06:30 16° NNW 12:09:56 74° W 12:14:20 10° S
Cosmos 1092 Rocket 4.5 12:08:37 27° NW 12:10:50 35° W 12:16:17 10° SSW
ALOS 2.1 12:07:47 10° N 12:12:27 73° WNW 12:17:06 10° SSW
PSLV R/B 3.9 12:13:59 29° S 12:13:59 29° S 12:15:46 10° SE
Cosmos 1655 Rocket 4.1 12:07:24 10° N 12:13:39 80° E 12:19:53 10° S
GEOS 3 Rocket 3.6 12:08:59 10° SE 12:14:04 81° NE 12:17:58 18° NNW
Meteor 2-13 Rocket 4.5 12:08:33 10° N 12:14:44 85° E 12:20:54 10° S
MOS 1-B 4.3 12:14:44 10° N 12:20:24 58° WNW 12:26:01 10° SSW
Cosmos 1741 Rocket 4.3 12:18:01 24° NW 12:20:46 44° WSW 12:25:41 10° S
Okean O Rocket 1.5 12:16:44 10° NNE 12:21:09 86° WNW 12:25:34 10° SSW
Meteor 2-4 Rocket 3.5 12:17:07 10° N 12:22:35 84° W 12:27:56 10° S
Cosmos 2263 Rocket 3.6 12:26:39 17° NW 12:26:39 17° NW 12:29:23 10° N
Cosmos 1674 Rocket 3.6 12:31:08 10° N 12:35:28 79° E 12:39:46 10° S
USA 234 3.8 12:31:57 10° NE 12:37:50 37° NNW 12:43:03 13° W
DMSP B5D1-3 4.5 12:33:02 10° S 12:38:11 77° WSW 12:43:22 10° NNW
Cosmos 405 2.8 12:35:26 10° N 12:38:58 81° W 12:42:27 10° S
SKYMED 2 4.5 12:35:36 10° SSW 12:39:21 28° W 12:42:08 15° NW
ATLAS 3B R/B 3.9 12:33:10 10° S 12:39:30 44° ESE 12:45:45 10° NE
Cosmos 1302 Rocket 4.0 12:35:11 10° SSW 12:40:29 82° WNW 12:45:49 10° NNE
NOSS 3-2 (C) 3.6 12:35:15 10° SSW 12:40:53 74° ESE 12:47:12 10° NE
SJ-7 4.2 12:38:41 10° N 12:42:40 68° WNW 12:46:36 10° SSW
FENGYUN 3A 4.0 12:38:26 10° N 12:43:29 43° WNW 12:48:31 10° SW
ATLAS CENTAUR R/B 2.7 12:41:12 10° NNW 12:45:00 34° NE 12:48:33 10° ESE
CZ-4 R/B 4.5 12:47:27 10° NE 12:49:49 15° E 12:52:13 10° SE
Cosmos 2266 Rocket 3.9 12:44:11 10° N 12:50:22 79° W 12:56:25 10° S
Cosmos 1378 Rocket 3.6 12:47:46 10° N 12:52:14 87° E 12:56:40 10° S
Cosmos 44 Rocket 3.2 12:47:23 10° SW 12:52:17 74° WNW 12:57:06 10° NNE
GPS 2-04 Rocket1 3.6 12:50:03 10° WSW 12:53:48 45° S 12:57:43 10° E
NOAA 6 4.3 12:49:37 10° N 12:54:29 44° WNW 12:59:20 10° SW
Cosmos 1844 Rocket 3.0 12:51:05 10° SW 12:56:22 42° WNW 13:01:40 10° N
H-2A R/B 2.7 12:53:29 10° NNE 12:57:15 89° E 13:01:04 10° SSW
Cosmos 1743 4.5 12:54:14 10° SSE 12:57:43 35° E 13:01:13 10° NNE
Cosmos 1536 3.0 12:54:18 10° SSW 12:58:15 52° W 13:02:14 10° N
Cosmos 304 Rocket 4.0 12:58:29 10° SW 13:03:04 47° WNW 13:07:42 10° N
Cosmos 1844 4.0 12:58:33 10° SW 13:04:07 48° WNW 13:09:43 10° NNE
Orbus 7S? 4.4 13:03:27 12° NW 13:04:17 13° NW 13:05:39 10° N
COSMOS 2406 3.9 13:02:24 10° NNW 13:08:00 57° ENE 13:13:33 10° SE
CZ-4B R/B 3.8 13:03:46 10° N 13:08:55 38° WNW 13:14:04 10° SW
EP 3 3.5 13:07:12 10° SW 13:09:26 79° NW 13:11:29 10° NNE
IRS-1C Rocket 4.1 13:06:39 10° N 13:11:55 78° WNW 13:17:09 10° SSW
Cosmos 1992 Rocket 4.2 13:12:22 10° SSW 13:17:33 81° ESE 13:22:46 10° NNE
Hubble Space Telescope 3.4 13:15:22 10° SSW 13:17:55 16° S 13:20:28 10° SE
AQUARIUS 4.2 13:15:14 10° N 13:19:41 62° WNW 13:24:06 10° SSW
Cosmos 1908 Rocket 3.9 13:16:06 10° SSW 13:20:24 47° W 13:24:43 10° N
Cosmos 407 Rocket 3.8 23:37:12 10° S 23:42:11 51° ESE 23:47:16 10° NNE
Okean-O 3.6 23:38:55 10° ESE 23:42:33 25° ENE 23:46:11 10° NNE
Genesis I 3.2 23:41:23 10° NNW 23:45:13 57° NE 23:48:57 10° SE
Aureole 1 Rocket 2.6 23:43:06 10° SSW 23:46:02 64° WNW 23:49:17 10° NNE
Cosmos 1733 Rocket 4.3 23:45:01 10° NNW 23:49:13 46° W 23:53:27 10° SSW
Cosmos 1666 2.6 23:47:29 10° N 23:51:13 64° E 23:54:54 10° SSE
Cosmos 921 Rocket 3.3 23:48:13 10° N 23:52:20 43° ENE 23:56:30 10° SE
Cosmos 1975 4.3 23:49:56 10° NNE 23:52:41 17° ENE 23:55:24 10° ESE
BREEZE-M DEB (TANK) 3.4 23:47:49 10° WNW 23:52:46 34° N 23:55:24 11° ENE
YAOGAN 6 4.0 23:55:00 10° ESE 23:57:29 18° ENE 00:00:00 10° NNE
